Time,TemperatureF,DewpointF,PressureIn,WindDirection,WindDirectionDegrees,WindSpeedMPH,WindSpeedGustMPH,Humidity,HourlyPrecipIn,Conditions,Clouds,dailyrainin,SoftwareType,DateUTC
2013-02-13 00:04:00,18.3,15.3,29.80,North,-999,0.0,0.0,88,0.00,,,-99.99,WeatherLink 5.7,2013-02-13 06:04:00,
2013-02-13 00:20:00,17.8,14.8,29.79,North,-999,0.0,0.0,88,0.00,,,-99.99,WeatherLink 5.7,2013-02-13 06:20:00,
2013-02-13 00:35:00,18.4,15.7,29.78,North,-999,0.0,0.0,89,0.00,,,-99.99,WeatherLink 5.7,2013-02-13 06:35:00,
2013-02-13 00:50:00,17.8,14.8,29.78,North,-999,0.0,0.0,88,0.00,,,-99.99,WeatherLink 5.7,2013-02-13 06:50:00,
2013-02-13 01:04:00,17.3,14.6,29.78,North,-999,0.0,0.0,89,0.00,,,-99.99,WeatherLink 5.7,2013-02-13 07:04:00,
2013-02-13 01:19:00,17.0,14.3,29.77,North,-999,0.0,0.0,89,0.00,,,-99.99,WeatherLink 5.7,2013-02-13 07:19:00,
2013-02-13 01:34:00,17.0,14.3,29.76,North,-999,0.0,0.0,89,0.00,,,-99.99,WeatherLink 5.7,2013-02-13 07:34:00,
2013-02-13 01:50:00,17.8,15.1,29.76,North,-999,0.0,0.0,89,0.00,,,-99.99,WeatherLink 5.7,2013-02-13 07:50:00,
2013-02-13 02:04:00,17.7,15.0,29.76,North,-999,0.0,0.0,89,0.00,,,-99.99,WeatherLink 5.7,2013-02-13 08:04:00,
2013-02-13 02:19:00,17.0,14.3,29.75,North,-999,0.0,0.0,89,0.00,,,-99.99,WeatherLink 5.7,2013-02-13 08:19:00,
2013-02-13 02:35:00,16.5,13.8,29.74,North,-999,0.0,0.0,89,0.00,,,-99.99,WeatherLink 5.7,2013-02-13 08:35:00,
2013-02-13 02:49:00,16.2,13.5,29.74,North,-999,0.0,0.0,89,0.00,,,-99.99,WeatherLink 5.7,2013-02-13 08:49:00,
2013-02-13 03:04:00,15.7,13.0,29.74,North,-999,0.0,0.0,89,0.00,,,-99.99,WeatherLink 5.7,2013-02-13 09:04:00,
2013-02-13 03:19:00,15.9,13.2,29.73,North,-999,0.0,0.0,89,0.00,,,-99.99,WeatherLink 5.7,2013-02-13 09:19:00,
2013-02-13 03:35:00,15.4,12.7,29.73,North,-999,0.0,0.0,89,0.00,,,-99.99,WeatherLink 5.7,2013-02-13 09:35:00,
2013-02-13 03:50:00,15.2,12.5,29.73,North,-999,0.0,0.0,89,0.00,,,-99.99,WeatherLink 5.7,2013-02-13 09:50:00,
2013-02-13 04:05:00,14.8,12.1,29.72,North,-999,0.0,0.0,89,0.00,,,-99.99,WeatherLink 5.7,2013-02-13 10:05:00,
2013-02-13 04:20:00,14.4,11.8,29.72,North,-999,0.0,0.0,89,0.00,,,-99.99,WeatherLink 5.7,2013-02-13 10:20:00,
2013-02-13 04:35:00,15.1,12.4,29.71,North,-999,0.0,0.0,89,0.00,,,-99.99,WeatherLink 5.7,2013-02-13 10:35:00,
2013-02-13 04:50:00,15.1,12.4,29.71,North,-999,0.0,0.0,89,0.00,,,-99.99,WeatherLink 5.7,2013-02-13 10:50:00,
2013-02-13 05:04:00,14.8,12.1,29.71,North,-999,0.0,0.0,89,0.00,,,-99.99,WeatherLink 5.7,2013-02-13 11:04:00,
2013-02-13 05:19:00,14.6,11.9,29.71,North,-999,0.0,0.0,89,0.00,,,-99.99,WeatherLink 5.7,2013-02-13 11:19:00,
2013-02-13 05:34:00,14.1,11.2,29.70,North,-999,0.0,0.0,88,0.00,,,-99.99,WeatherLink 5.7,2013-02-13 11:34:00,
2013-02-13 05:50:00,13.5,10.6,29.69,North,-999,0.0,0.0,88,0.00,,,-99.99,WeatherLink 5.7,2013-02-13 11:50:00,
2013-02-13 06:05:00,13.3,10.4,29.69,North,-999,0.0,0.0,88,0.00,,,-99.99,WeatherLink 5.7,2013-02-13 12:05:00,
2013-02-13 06:19:00,12.9,10.0,29.69,North,-999,0.0,0.0,88,0.00,,,-99.99,WeatherLink 5.7,2013-02-13 12:19:00,
2013-02-13 06:34:00,13.1,10.5,29.69,North,-999,0.0,0.0,89,0.00,,,-99.99,WeatherLink 5.7,2013-02-13 12:34:00,
2013-02-13 06:50:00,12.9,10.0,29.69,North,-999,0.0,0.0,88,0.00,,,-99.99,WeatherLink 5.7,2013-02-13 12:50:00,
2013-02-13 07:04:00,12.9,10.0,29.69,North,-999,0.0,0.0,88,0.00,,,-99.99,WeatherLink 5.7,2013-02-13 13:04:00,
2013-02-13 07:19:00,12.9,10.0,29.69,North,-999,0.0,0.0,88,0.00,,,-99.99,WeatherLink 5.7,2013-02-13 13:19:00,
2013-02-13 07:34:00,13.1,10.5,29.69,North,-999,0.0,0.0,89,0.00,,,-99.99,WeatherLink 5.7,2013-02-13 13:34:00,
2013-02-13 07:50:00,14.1,11.5,29.69,North,-999,0.0,0.0,89,0.00,,,-99.99,WeatherLink 5.7,2013-02-13 13:50:00,
2013-02-13 08:04:00,16.1,13.7,29.69,North,-999,0.0,0.0,90,0.00,,,-99.99,WeatherLink 5.7,2013-02-13 14:04:00,
2013-02-13 08:19:00,18.4,16.2,29.69,North,-999,0.0,0.0,91,0.00,,,-99.99,WeatherLink 5.7,2013-02-13 14:19:00,
2013-02-13 08:35:00,22.4,20.4,29.69,North,-999,0.0,0.0,92,0.00,,,-99.99,WeatherLink 5.7,2013-02-13 14:35:00,
2013-02-13 08:49:00,23.5,21.3,29.69,North,-999,0.0,0.0,91,0.00,,,-99.99,WeatherLink 5.7,2013-02-13 14:49:00,
2013-02-13 09:05:00,25.4,23.1,29.68,North,-999,0.0,0.0,91,0.01,,,-99.99,WeatherLink 5.7,2013-02-13 15:05:00,
2013-02-13 09:20:00,27.3,25.0,29.68,SSE,157,0.0,1.0,91,0.01,,,-99.99,WeatherLink 5.7,2013-02-13 15:20:00,
2013-02-13 09:34:00,28.1,25.5,29.68,WSW,247,1.0,4.0,90,0.01,,,-99.99,WeatherLink 5.7,2013-02-13 15:34:00,
2013-02-13 09:49:00,29.3,26.7,29.67,WSW,247,0.0,4.0,90,0.01,,,-99.99,WeatherLink 5.7,2013-02-13 15:49:00,
2013-02-13 10:04:00,30.3,27.4,29.67,West,270,0.0,4.0,89,0.00,,,-99.99,WeatherLink 5.7,2013-02-13 16:04:00,
2013-02-13 10:19:00,31.3,27.6,29.67,West,270,1.0,5.0,86,0.00,,,-99.99,WeatherLink 5.7,2013-02-13 16:19:00,
2013-02-13 10:35:00,32.1,27.5,29.67,West,270,2.0,6.0,83,0.00,,,-99.99,WeatherLink 5.7,2013-02-13 16:35:00,
2013-02-13 10:50:00,33.1,27.6,29.68,West,270,1.0,9.0,80,0.00,,,-99.99,WeatherLink 5.7,2013-02-13 16:50:00,
2013-02-13 11:05:00,34.0,28.2,29.67,West,270,1.0,5.0,79,0.00,,,-99.99,WeatherLink 5.7,2013-02-13 17:05:00,
2013-02-13 11:20:00,34.3,27.5,29.67,WSW,247,1.0,5.0,76,0.00,,,-99.99,WeatherLink 5.7,2013-02-13 17:20:00,
2013-02-13 11:34:00,34.9,28.1,29.67,West,270,1.0,6.0,76,0.00,,,-99.99,WeatherLink 5.7,2013-02-13 17:34:00,
2013-02-13 11:49:00,34.7,27.6,29.67,West,270,2.0,6.0,75,0.00,,,-99.99,WeatherLink 5.7,2013-02-13 17:49:00,
2013-02-13 12:04:00,35.5,28.0,29.66,West,270,1.0,5.0,74,0.00,,,-99.99,WeatherLink 5.7,2013-02-13 18:04:00,
2013-02-13 12:19:00,36.5,28.7,29.65,West,270,0.0,4.0,73,0.00,,,-99.99,WeatherLink 5.7,2013-02-13 18:19:00,
2013-02-13 12:34:00,36.6,28.4,29.64,WSW,247,1.0,6.0,72,0.00,,,-99.99,WeatherLink 5.7,2013-02-13 18:34:00,
2013-02-13 12:50:00,37.0,28.8,29.64,West,270,1.0,4.0,72,0.00,,,-99.99,WeatherLink 5.7,2013-02-13 18:50:00,
2013-02-13 13:05:00,36.8,28.3,29.64,West,270,3.0,10.0,71,0.00,,,-99.99,WeatherLink 5.7,2013-02-13 19:05:00,
2013-02-13 13:20:00,36.6,28.1,29.64,WSW,247,3.0,9.0,71,0.00,,,-99.99,WeatherLink 5.7,2013-02-13 19:20:00,
2013-02-13 13:34:00,36.6,28.4,29.63,WSW,247,3.0,11.0,72,0.00,,,-99.99,WeatherLink 5.7,2013-02-13 19:34:00,
2013-02-13 13:49:00,37.0,28.8,29.63,WSW,247,2.0,8.0,72,0.00,,,-99.99,WeatherLink 5.7,2013-02-13 19:49:00,
2013-02-13 14:05:00,36.9,28.7,29.63,WSW,247,2.0,7.0,72,0.00,,,-99.99,WeatherLink 5.7,2013-02-13 20:05:00,
2013-02-13 14:19:00,37.0,28.8,29.63,West,270,1.0,7.0,72,0.00,,,-99.99,WeatherLink 5.7,2013-02-13 20:19:00,
2013-02-13 14:35:00,37.2,28.7,29.63,WSW,247,3.0,9.0,71,0.00,,,-99.99,WeatherLink 5.7,2013-02-13 20:35:00,
2013-02-13 14:50:00,37.3,28.1,29.63,WSW,247,4.0,12.0,69,0.00,,,-99.99,WeatherLink 5.7,2013-02-13 20:50:00,
2013-02-13 15:05:00,37.6,28.3,29.64,WSW,247,6.0,16.0,69,0.00,,,-99.99,WeatherLink 5.7,2013-02-13 21:05:00,
2013-02-13 15:19:00,38.0,28.4,29.64,WSW,247,4.0,17.0,68,0.00,,,-99.99,WeatherLink 5.7,2013-02-13 21:19:00,
2013-02-13 15:34:00,38.0,28.4,29.64,WSW,247,5.0,13.0,68,0.00,,,-99.99,WeatherLink 5.7,2013-02-13 21:34:00,
2013-02-13 15:50:00,38.5,28.9,29.64,West,270,4.0,13.0,68,0.00,,,-99.99,WeatherLink 5.7,2013-02-13 21:50:00,
2013-02-13 16:04:00,38.8,29.1,29.64,WSW,247,2.0,10.0,68,0.00,,,-99.99,WeatherLink 5.7,2013-02-13 22:04:00,
2013-02-13 16:20:00,39.1,29.1,29.64,WSW,247,2.0,7.0,67,0.00,,,-99.99,WeatherLink 5.7,2013-02-13 22:20:00,
2013-02-13 16:35:00,38.5,28.9,29.64,WSW,247,3.0,9.0,68,0.00,,,-99.99,WeatherLink 5.7,2013-02-13 22:35:00,
2013-02-13 16:50:00,37.3,28.4,29.64,WSW,247,1.0,7.0,70,0.00,,,-99.99,WeatherLink 5.7,2013-02-13 22:50:00,
2013-02-13 17:04:00,36.6,28.1,29.64,West,270,0.0,7.0,71,0.00,,,-99.99,WeatherLink 5.7,2013-02-13 23:04:00,
2013-02-13 17:19:00,36.0,27.8,29.65,West,270,0.0,5.0,72,0.00,,,-99.99,WeatherLink 5.7,2013-02-13 23:19:00,
2013-02-13 17:35:00,35.5,27.7,29.65,WSW,247,0.0,4.0,73,0.00,,,-99.99,WeatherLink 5.7,2013-02-13 23:35:00,
2013-02-13 17:50:00,34.9,27.5,29.65,WSW,247,0.0,1.0,74,0.00,,,-99.99,WeatherLink 5.7,2013-02-13 23:50:00,
2013-02-13 18:05:00,34.3,27.2,29.65,North,-999,0.0,0.0,75,0.00,,,-99.99,WeatherLink 5.7,2013-02-14 00:05:00,
2013-02-13 18:20:00,34.3,27.8,29.65,WSW,247,0.0,1.0,77,0.00,,,-99.99,WeatherLink 5.7,2013-02-14 00:20:00,
2013-02-13 18:35:00,34.3,28.2,29.66,WSW,247,0.0,3.0,78,0.00,,,-99.99,WeatherLink 5.7,2013-02-14 00:35:00,
2013-02-13 18:51:00,34.9,29.0,29.66,WSW,247,1.0,4.0,79,0.00,,,-99.99,WeatherLink 5.7,2013-02-14 00:51:00,
2013-02-13 19:06:00,34.9,29.0,29.66,North,-999,0.0,0.0,79,0.00,,,-99.99,WeatherLink 5.7,2013-02-14 01:06:00,
2013-02-13 19:20:00,34.9,29.0,29.65,North,-999,0.0,0.0,79,0.00,,,-99.99,WeatherLink 5.7,2013-02-14 01:20:00,
2013-02-13 19:35:00,34.9,29.0,29.65,North,-999,0.0,0.0,79,0.00,,,-99.99,WeatherLink 5.7,2013-02-14 01:35:00,
2013-02-13 19:50:00,34.9,29.0,29.65,North,-999,0.0,0.0,79,0.00,,,-99.99,WeatherLink 5.7,2013-02-14 01:50:00,
2013-02-13 20:05:00,34.9,29.4,29.65,WSW,247,0.0,1.0,80,0.00,,,-99.99,WeatherLink 5.7,2013-02-14 02:05:00,
2013-02-13 20:20:00,34.7,29.2,29.64,North,-999,0.0,0.0,80,0.00,,,-99.99,WeatherLink 5.7,2013-02-14 02:20:00,
2013-02-13 20:35:00,34.7,29.5,29.64,North,-999,0.0,0.0,81,0.00,,,-99.99,WeatherLink 5.7,2013-02-14 02:35:00,
2013-02-13 20:50:00,34.9,29.7,29.64,WSW,247,0.0,3.0,81,0.00,,,-99.99,WeatherLink 5.7,2013-02-14 02:50:00,
2013-02-13 21:04:00,35.0,29.8,29.63,SSW,202,0.0,4.0,81,0.00,,,-99.99,WeatherLink 5.7,2013-02-14 03:04:00,
2013-02-13 21:19:00,35.2,30.0,29.62,SSE,157,0.0,1.0,81,0.00,,,-99.99,WeatherLink 5.7,2013-02-14 03:19:00,
2013-02-13 21:35:00,35.3,30.1,29.62,SW,225,0.0,4.0,81,0.00,,,-99.99,WeatherLink 5.7,2013-02-14 03:35:00,
2013-02-13 21:50:00,35.2,30.3,29.62,SW,225,0.0,2.0,82,0.00,,,-99.99,WeatherLink 5.7,2013-02-14 03:50:00,
2013-02-13 22:05:00,35.0,30.1,29.62,SSW,202,0.0,2.0,82,0.00,,,-99.99,WeatherLink 5.7,2013-02-14 04:05:00,
2013-02-13 22:20:00,34.7,30.1,29.61,SSE,157,0.0,2.0,83,0.00,,,-99.99,WeatherLink 5.7,2013-02-14 04:20:00,
2013-02-13 22:35:00,34.4,29.8,29.60,SSE,157,0.0,2.0,83,0.00,,,-99.99,WeatherLink 5.7,2013-02-14 04:35:00,
2013-02-13 22:49:00,34.3,30.0,29.60,SSE,157,0.0,1.0,84,0.00,,,-99.99,WeatherLink 5.7,2013-02-14 04:49:00,
2013-02-13 23:04:00,34.6,30.3,29.60,SSE,157,1.0,3.0,84,0.00,,,-99.99,WeatherLink 5.7,2013-02-14 05:04:00,
2013-02-13 23:20:00,34.7,30.4,29.59,SSE,157,1.0,4.0,84,0.00,,,-99.99,WeatherLink 5.7,2013-02-14 05:20:00,
2013-02-13 23:35:00,35.2,30.9,29.59,SSE,157,2.0,6.0,84,0.00,,,-99.99,WeatherLink 5.7,2013-02-14 05:35:00,
2013-02-13 23:50:00,35.5,31.1,29.58,SSE,157,2.0,6.0,84,0.00,,,-99.99,WeatherLink 5.7,2013-02-14 05:50:00,